Location: Killam
(52.7910°N, 111.8608°W)
Time: 20:45:10
(UTC+00:00)

A-11 Canister half - Pass Details

Date: 25 February 2026
Orbit: 1525 x 1683 km, 47.3° (Epoch: 5 March)

Event Time Altitude Azimuth Distance (km) Brightness Sun altitude
Rises 20:22:21 0° 193° (SSW) 4,777 12.9 27.7°
Reaches altitude 10° 20:26:23 10° 179° (S) 3,769 12.6 27.6°
Maximum altitude 20:33:01 22° 134° (SE) 2,915 11.1 27.3°
Drops below altitude 10° 20:39:32 10° 89° (E) 3,711 10.9 27.1°
Sets 20:43:26 0° 75° (ENE) 4,685 11.3 26.9°
